Weather in Nedryhailiv

Ukraine / Sumi District     50°50′02″N   33°52′51″E
temp.,
°C
wind,
m/s
gust,
m/s
humid.,
%
clouds,
%
prec.,
mm/h
press.,
hPa
HPBL,
m
21 october, thu
thu2100:00+10ssw81962100 0.0 1018670
03:00+10sw81770100 0.0 1016550
06:00+9ssw8167987 0.0 1014428
09:00+10ssw81777100 0.0 1013530
12:00+14sw91459100 0.0 1013705
15:00+16sw9155299 0.0 1011867
18:00+14ssw91760100 0.0 1009859
21:00+12ssw10197151 0.0 1008716
22 october, fri
fri2200:00+11ssw8177880 0.0 1007560
03:00+10sw71581100 0.0 1007469
06:00+10sw61371100 0.0 1006330
09:00+12wsw71365100 0.0 1008813
12:00+15w9134512 0.0 10101326
15:00+16w714432 0.0 10111808
18:00+11wsw48555 0.0 1012154
21:00+10wsw4136136 0.0 1013315
23 october, sat
sat2300:00+10w4115797 0.0 1013503
03:00+10wsw39758 0.1 1013382
06:00+7ssw47723 0.0 1012131
09:00+9wsw612670 0.0 1013671
12:00+11w710455 0.0 10141226
15:00+11w8124498 0.0 10142134
18:00+7w510605 0.1 1016339
21:00+5w410675 0.1 1018253
24 october, sun
sun2400:00+4wsw39785 0.0 1019220
03:00+3wsw4108084 0.0 1019221
06:00+4sw41067100 0.0 1019315
09:00+6wnw697397 0.1 1020998
12:00+6wnw7963100 0.1 10211430
15:00+6wnw71064100 0.1 10211315
18:00+3nw7127499 0.3 10221132
21:00+3nnw7127781 0.3 1024992
25 october, mon
mon2500:00+2nnw81168100 0.0 10251170
03:00+1nnw6107683 0.0 1027797
06:00−1nnw5119010 0.0 1030403
09:000nnw59825 0.0 1032422
12:00+4n57535 0.0 1033873
15:00+5n45435 0.0 10331126
18:00+2n22565 0.0 103420
21:000ne22640 0.0 103614